Taylorville, IL

10:35 PM CDT on April 21, 2018 (GMT -0500)
Taylorville Municipal

Weather History for KTAZ - March, 2014

Change the Weather History Date:

Friday, March 21, 2014

  Actual Average (KSPI) Record (KSPI)
Temperature  
Mean Temperature 54 °F -  
Max Temperature 69 °F 52 °F 91 °F (1907)
Min Temperature 39 °F 33 °F 7 °F (1960)
Degree Days  
Heating Degree Days 11    
Growing Degree Days 4 (Base 50)    
Moisture  
Dew Point 34 °F    
Average Humidity 53    
Maximum Humidity 76    
Minimum Humidity 27    
Precipitation  
Precipitation 0.00 in - - ()
Sea Level Pressure  
Sea Level Pressure 29.86 in    
Wind  
Wind Speed 11 mph (SSW)    
Max Wind Speed 23 mph    
Max Gust Speed 29 mph    
Visibility 10 miles    
Events      
Averages and records for this station are not official NWS values.
T = Trace of Precipitation, MM = Missing Value Source: NWS Daily Summary

Daily Weather History Graph

Daily Weather History Graph

Search for Another Location

Airport or City:

Astronomy

Mar. 21, 2014 Rise Set
Actual Time 6:59 AM CDT 7:10 PM CDT
Civil Twilight 6:32 AM CDT 7:37 PM CDT
Nautical Twilight 6:00 AM CDT 8:08 PM CDT
Astronomical Twilight 5:28 AM CDT 8:40 PM CDT
Moon No Moon Rise 9:52 AM CDT (3/21)
Length of Visible Light 13h 04m
Length of Day
12h 11m
Waning Gibbous, 75% of the Moon is Illuminated
Mar 21
Waning Gibbous
Mar 23
Last Quarter
Mar 30
New
Apr 7
First Quarter
Apr 15
Full

Hourly Weather History & Observations

Time (CDT) Temp. Windchill Dew Point Humidity Pressure Visibility Wind Dir Wind Speed Gust Speed Precip Events Conditions
12:15 AM 41.0 °F 36.4 °F 33.8 °F 76% 29.93 in 10.0 mi SE 6.9 mph - N/A   Mostly Cloudy
12:35 AM 42.8 °F 38.0 °F 33.8 °F 70% 29.93 in 10.0 mi SSE 8.1 mph - N/A   Scattered Clouds
12:55 AM 42.8 °F 37.5 °F 33.8 °F 70% 29.92 in 10.0 mi South 9.2 mph - N/A   Clear
1:15 AM 42.8 °F 36.6 °F 33.8 °F 70% 29.92 in 10.0 mi South 11.5 mph - N/A   Scattered Clouds
1:35 AM 42.8 °F 36.2 °F 33.8 °F 70% 29.92 in 10.0 mi South 12.7 mph - N/A   Clear
1:55 AM 42.8 °F 36.6 °F 33.8 °F 70% 29.92 in 10.0 mi South 11.5 mph - N/A   Clear
2:15 AM 42.8 °F 37.0 °F 33.8 °F 70% 29.91 in 10.0 mi South 10.4 mph - N/A   Clear
2:35 AM 42.8 °F 37.0 °F 33.8 °F 70% 29.91 in 10.0 mi South 10.4 mph - N/A   Clear
2:55 AM 42.8 °F 37.0 °F 33.8 °F 70% 29.90 in 10.0 mi South 10.4 mph - N/A   Clear
3:15 AM 42.8 °F 37.0 °F 32.0 °F 66% 29.90 in 10.0 mi South 10.4 mph - N/A   Clear
3:35 AM 42.8 °F 37.0 °F 32.0 °F 66% 29.89 in 10.0 mi South 10.4 mph - N/A   Clear
3:55 AM 41.0 °F 34.3 °F 32.0 °F 70% 29.89 in 10.0 mi South 11.5 mph - N/A   Clear
4:15 AM 41.0 °F 34.7 °F 32.0 °F 70% 29.88 in 10.0 mi South 10.4 mph - N/A   Clear
4:35 AM 41.0 °F 34.3 °F 32.0 °F 70% 29.88 in 10.0 mi South 11.5 mph - N/A   Clear
4:55 AM 41.0 °F 34.7 °F 32.0 °F 70% 29.88 in 10.0 mi South 10.4 mph - N/A   Clear
5:15 AM 41.0 °F 34.7 °F 32.0 °F 70% 29.88 in 10.0 mi South 10.4 mph - N/A   Clear
5:35 AM 39.2 °F 33.0 °F 32.0 °F 75% 29.88 in 10.0 mi South 9.2 mph - N/A   Clear
5:55 AM 39.2 °F 33.6 °F 32.0 °F 75% 29.88 in 10.0 mi South 8.1 mph - N/A   Clear
6:15 AM 39.2 °F 33.6 °F 32.0 °F 75% 29.88 in 10.0 mi South 8.1 mph - N/A   Clear
6:35 AM 39.2 °F 33.0 °F 32.0 °F 75% 29.89 in 10.0 mi SSW 9.2 mph - N/A   Clear
6:55 AM 39.2 °F 32.5 °F 32.0 °F 75% 29.89 in 10.0 mi South 10.4 mph - N/A   Clear
7:15 AM 39.2 °F 32.5 °F 32.0 °F 75% 29.90 in 10.0 mi SSW 10.4 mph - N/A   Clear
7:35 AM 41.0 °F 35.2 °F 32.0 °F 70% 29.90 in 10.0 mi SSW 9.2 mph - N/A   Clear
7:55 AM 41.0 °F 35.2 °F 32.0 °F 70% 29.90 in 10.0 mi SSW 9.2 mph - N/A   Clear
8:15 AM 42.8 °F 38.0 °F 33.8 °F 70% 29.90 in 10.0 mi SSW 8.1 mph - N/A   Clear
8:35 AM 42.8 °F 38.0 °F 33.8 °F 70% 29.90 in 10.0 mi SSW 8.1 mph - N/A   Clear
8:55 AM 44.6 °F 40.2 °F 33.8 °F 66% 29.91 in 10.0 mi SSW 8.1 mph - N/A   Clear
9:15 AM 46.4 °F 42.9 °F 33.8 °F 62% 29.91 in 10.0 mi SSW 6.9 mph - N/A   Clear
9:35 AM 48.2 °F - 33.8 °F 58% 29.90 in 10.0 mi SSW 8.1 mph - N/A   Clear
9:55 AM 50.0 °F - 35.6 °F 58% 29.90 in 10.0 mi SSW 8.1 mph - N/A   Clear
10:15 AM 50.0 °F - 35.6 °F 58% 29.90 in 10.0 mi SSW 8.1 mph - N/A   Clear
10:35 AM 51.8 °F - 35.6 °F 54% 29.90 in 10.0 mi SSW 9.2 mph - N/A   Clear
10:55 AM 55.4 °F - 33.8 °F 44% 29.89 in 10.0 mi SSW 10.4 mph - N/A   Clear
11:15 AM 55.4 °F - 33.8 °F 44% 29.89 in 10.0 mi SW 15.0 mph - N/A   Clear
11:35 AM 57.2 °F - 35.6 °F 44% 29.89 in 10.0 mi SW 15.0 mph 18.4 mph N/A   Clear
11:55 AM 60.8 °F - 35.6 °F 39% 29.88 in 10.0 mi SW 13.8 mph - N/A   Clear
12:15 PM 60.8 °F - 35.6 °F 39% 29.87 in 10.0 mi SW 13.8 mph 17.3 mph N/A   Clear
12:35 PM 62.6 °F - 37.4 °F 39% 29.86 in 10.0 mi SW 11.5 mph - N/A   Clear
12:55 PM 64.4 °F - 37.4 °F 37% 29.85 in 10.0 mi SSW 11.5 mph - N/A   Clear
1:15 PM 64.4 °F - 35.6 °F 34% 29.83 in 10.0 mi SSW 13.8 mph - N/A   Clear
1:35 PM 68.0 °F - 35.6 °F 30% 29.82 in 10.0 mi SSW 12.7 mph 20.7 mph N/A   Clear
1:55 PM 68.0 °F - 35.6 °F 30% 29.82 in 10.0 mi SSW 11.5 mph 23.0 mph N/A   Clear
2:15 PM 69.8 °F - 35.6 °F 28% 29.80 in 10.0 mi South 17.3 mph 20.7 mph N/A   Clear
2:35 PM 69.8 °F - 35.6 °F 28% 29.79 in 10.0 mi SSW 13.8 mph 21.9 mph N/A   Clear
2:55 PM 69.8 °F - 35.6 °F 28% 29.78 in 10.0 mi SSW 15.0 mph 20.7 mph N/A   Clear
3:15 PM 69.8 °F - 33.8 °F 27% 29.77 in 10.0 mi South 23.0 mph - N/A   Clear
3:35 PM 69.8 °F - 33.8 °F 27% 29.76 in 10.0 mi SSW 20.7 mph 25.3 mph N/A   Clear
3:55 PM 69.8 °F - 33.8 °F 27% 29.76 in 10.0 mi SSW 20.7 mph 25.3 mph N/A   Clear
4:15 PM 68.0 °F - 33.8 °F 28% 29.75 in 10.0 mi South 17.3 mph 28.8 mph N/A   Clear
4:35 PM 68.0 °F - 33.8 °F 28% 29.74 in 10.0 mi South 20.7 mph 26.5 mph N/A   Clear
4:55 PM 68.0 °F - 33.8 °F 28% 29.74 in 10.0 mi South 17.3 mph 24.2 mph N/A   Clear
5:15 PM 68.0 °F - 33.8 °F 28% 29.73 in 10.0 mi South 19.6 mph 23.0 mph N/A   Scattered Clouds
5:35 PM 68.0 °F - 35.6 °F 30% 29.74 in 10.0 mi South 18.4 mph 24.2 mph N/A   Scattered Clouds
5:55 PM 66.2 °F - 35.6 °F 32% 29.73 in 10.0 mi South 17.3 mph 23.0 mph N/A   Clear
6:15 PM 64.4 °F - 35.6 °F 34% 29.73 in 10.0 mi South 18.4 mph 21.9 mph N/A   Scattered Clouds
6:35 PM 62.6 °F - 37.4 °F 39% 29.73 in 10.0 mi South 10.4 mph - N/A   Scattered Clouds
6:55 PM 60.8 °F - 37.4 °F 42% 29.74 in 10.0 mi South 13.8 mph - N/A   Scattered Clouds
7:15 PM 60.8 °F - 37.4 °F 42% 29.73 in 10.0 mi South 13.8 mph 19.6 mph N/A   Mostly Cloudy
7:35 PM 60.8 °F - 35.6 °F 39% 29.76 in 10.0 mi SW 12.7 mph 21.9 mph N/A   Mostly Cloudy
7:55 PM 59.0 °F - 35.6 °F 42% 29.78 in 10.0 mi WNW 11.5 mph - N/A   Mostly Cloudy
8:15 PM 57.2 °F - 35.6 °F 44% 29.79 in 10.0 mi WNW 8.1 mph - N/A   Mostly Cloudy
8:35 PM 55.4 °F - 37.4 °F 51% 29.82 in 10.0 mi NW 16.1 mph 24.2 mph N/A   Overcast
8:55 PM 55.4 °F - 35.6 °F 47% 29.85 in 10.0 mi NW 16.1 mph 25.3 mph N/A   Overcast
9:15 PM 53.6 °F - 35.6 °F 51% 29.86 in 10.0 mi NNW 15.0 mph 20.7 mph N/A   Overcast
9:35 PM 51.8 °F - 35.6 °F 54% 29.87 in 10.0 mi NW 16.1 mph 20.7 mph N/A   Overcast
9:55 PM 51.8 °F - 35.6 °F 54% 29.89 in 10.0 mi NNW 12.7 mph - N/A   Mostly Cloudy
10:15 PM 50.0 °F - 35.6 °F 58% 29.90 in 10.0 mi NW 10.4 mph - N/A   Scattered Clouds
10:35 PM 50.0 °F - 35.6 °F 58% 29.91 in 10.0 mi NW 10.4 mph - N/A   Clear
10:55 PM 48.2 °F - 35.6 °F 62% 29.92 in 10.0 mi NW 10.4 mph - N/A   Clear
11:15 PM 48.2 °F - 33.8 °F 58% 29.93 in 10.0 mi NW 9.2 mph - N/A   Clear
11:35 PM 46.4 °F 41.5 °F 35.6 °F 66% 29.94 in 10.0 mi NNW 10.4 mph - N/A   Clear
11:55 PM 46.4 °F 39.8 °F 35.6 °F 66% 29.96 in 10.0 mi NNW 16.1 mph 20.7 mph N/A   Clear